Дата Пункты Температура Давл., мм. Влажн., % Ветер Погодные явления
Воздуха Воды Направл. Скорость
14.11.18 02:00 Одесса 1.0 10.0 770 82 С 5 02 ГОДИНИ
13.11.18 11:00 Одесса 1.0 10.0 771 81 С 5 23 ГОДИНИ
13.11.18 08:00 Одесса 1.0 10.0 772 76 С 7 20 ГОДИН
13.11.18 05:00 Одесса 1.0 10.0 773 72 Пн-С 3 17 ГОДИН
13.11.18 02:00 Одесса 1.0 10.0 773 78 С 4 14 ГОДИН
13.11.18 05:00 Одесса 1.0 11.0 774 86 Пн-С 6 05 ГОДИН
13.11.18 02:00 Одесса 3.0 11.0 774 80 С 7 02 ГОДИНИ
12.11.18 11:00 Одесса 4.0 11.0 774 80 С 6 23 ГОДИНИ
12.11.18 08:00 Одесса 4.0 11.0 773 82 С 8 20 ГОДИН
12.11.18 05:00 Одесса 5.0 11.0 772 78 С 6 17 ГОДИН
12.11.18 02:00 Одесса 6.0 11.0 771 79 С 7 14 ГОДИН
12.11.18 11:00 Одесса 6.0 11.0 772 84 С 7 11 ГОДИН
12.11.18 08:00 Одесса 7.0 11.0 771 85 С 5 08 ГОДИН
12.11.18 05:00 Одесса 7.0 11.0 770 84 С 7 05 ГОДИН
12.11.18 02:00 Одесса 6.0 11.0 769 91 С 6 02 ГОДИНИ
11.11.18 11:00 Одесса 6.0 11.0 769 87 С 4 23 ГОДИНИ
11.11.18 08:00 Одесса 6.0 11.0 769 86 С 5 20 ГОДИН
11.11.18 05:00 Одесса 6.0 11.0 768 87 С 7 17 ГОДИН
11.11.18 02:00 Одесса 6.0 11.0 767 91 С 6 14 ГОДИН
11.11.18 11:00 Одесса 7.0 12.0 767 90 С 7 11 ГОДИН
Количество строк
1 2 3 4 5 6 7 8 9 10
Page 2 of 426